Home   Weather   Kuala Lumpur   Past weeks
Flag for Malaysia

Past Weather in Kuala Lumpur, Malaysia — Yesterday and Last 2 Weeks

Now
84 °F

Broken clouds.


Feels Like: 92 °F
Forecast: 90 / 77 °F
Wind: 5 mph from Southeast

Location: Sultan Abdul Aziz Shah-Subang

Current Time: Jul 19, 2019 at 10:06:32 am

Latest Report: Jul 19, 2019 at 9:00 am


Visibility: N/A

Pressure: 29.80 "Hg

Humidity: 74%

Dew Point: 75 °F

Location of Kuala LumpurLocation

Past Weather in Kuala Lumpur — Graph

°F

Kuala Lumpur Temperature Yesterday

Maximum temperature yesterday: 90 °F (at 4:00 pm)
Minimum temperature yesterday: 79 °F (at 3:00 am)
Average temperature yesterday: 84 °F

High & Low Weather Summary for the Past Weeks

 TemperatureHumidityPressure
High93 °F (Jul 5, 2:00 pm)100% (Jul 6, 8:00 pm)29.95 "Hg (Jul 6, 8:00 pm)
Low75 °F (Jul 6, 7:00 pm)53% (Jul 5, 3:00 pm)29.68 "Hg (Jul 17, 5:00 pm)
Average83 °F79%29.82 "Hg
* Reported Jul 4 9:00 am — Jul 19 9:00 am, Kuala Lumpur. Weather by CustomWeather, © 2019

Note: Actual official high and low records may vary slightly from our data, if they occured in-between our weather recording intervals... More about our weather records

Advertising

Kuala Lumpur Weather History for the Previous 24 Hours

Scroll right to see more
 ConditionsComfort  
Time TempWeatherWind HumidityBarometerVisibility
9:00 am
Fri, Jul 19
84 °FBroken clouds.5 mph74%29.80 "HgN/A
8:00 am81 °FPassing clouds.2 mph79%29.77 "HgN/A
7:00 am81 °FPartly cloudy.3 mph79%29.77 "HgN/A
6:00 am79 °FPartly cloudy.1 mph89%29.74 "HgN/A
5:00 am81 °FPartly cloudy.5 mph79%29.74 "HgN/A
4:00 am81 °FPartly cloudy.6 mph84%29.77 "HgN/A
3:00 am81 °FPartly cloudy.7 mph84%29.77 "HgN/A
2:00 am81 °FPartly cloudy.3 mph84%29.77 "HgN/A
1:00 am82 °FPassing clouds.2 mph84%29.77 "HgN/A
12:00 am84 °FPassing clouds.3 mph74%29.80 "HgN/A
11:00 pm
Thu, Jul 18
84 °FPartly cloudy.5 mph74%29.77 "HgN/A
10:00 pm84 °FPartly cloudy.3 mph74%29.77 "HgN/A
9:00 pm84 °FPartly cloudy.6 mph74%29.74 "HgN/A
8:00 pm86 °FBroken clouds.7 mph66%29.71 "HgN/A
7:00 pm88 °FBroken clouds.8 mph62%29.68 "HgN/A
6:00 pm88 °FBroken clouds.13 mph62%29.68 "HgN/A
5:00 pm90 °FBroken clouds.12 mph63%29.68 "HgN/A
4:00 pm90 °FBroken clouds.10 mph63%29.68 "HgN/A
3:00 pm88 °FBroken clouds.9 mph66%29.71 "HgN/A
2:00 pm86 °FBroken clouds.6 mph75%29.74 "HgN/A
1:00 pm88 °FPartly sunny.7 mph66%29.74 "HgN/A
12:00 pm88 °FBroken clouds.9 mph66%29.77 "HgN/A
11:00 am86 °FBroken clouds.10 mph70%29.77 "HgN/A
10:00 am86 °FBroken clouds.8 mph70%29.77 "HgN/A
Weather by CustomWeather, © 2019

See weather overview